AirNav   Phillips 66 Aviation Fuel
 
 896 users online  

7XS0 Polly Ranch Airport
Friendswood, Texas, USA

GOING TO FRIENDSWOOD?


FAA INFORMATION EFFECTIVE 29 MARCH 2018

Location

FAA Identifier: 7XS0
Lat/Long: 29-30-16.8390N / 095-10-31.7580W
29-30.280650N / 095-10.529300W
29.5046775 / -95.1754883
(estimated)
Elevation: 24 ft. / 7.3 m (surveyed)
Variation: 06E (1985)
From city: 3 miles SE of FRIENDSWOOD, TX
Time zone: UTC -5 (UTC -6 during Standard Time)
Zip code: 77546

Airport Operations

Airport use: Private use. Permission required prior to landing
Activation date: 03/1977
Control tower: no
ARTCC: HOUSTON CENTER
FSS: MONTGOMERY COUNTY FLIGHT SERVICE STATION
Attendance: UNATNDD
Wind indicator: yes
Segmented circle: no
Lights: SS-SR
Landing fee: yes

Airport Communications

WX ASOS at LVJ (4 nm W): 118.525 (281-992-1853)
WX ASOS at HOU (10 nm NW): PHONE 713-847-1462
WX AWOS-3 at AXH (16 nm W): 123.625 (281-431-6572)

Nearby radio navigation aids

VOR radial/distance  VOR name  Freq  Var
HUBr145/10.5HOBBY VOR/DME117.1005E
VUHr305/21.4SCHOLES VOR/DME113.0006E
MHFr257/22.5TRINITY VOR/DME113.6007E
IAHr157/28.5HUMBLE VORTAC116.6005E

 
NDB name  Hdg/Dist  Freq  Var  ID
GALVESTON287/24.220608EGLS --. .-.. ...
NIXIN171/29.432605EBVP -... ...- .--.

Airport Services

Runway Information

Runway 11/29

Dimensions: 2700 x 22 ft. / 823 x 7 m
Surface: asphalt
Runway edge lights: low intensity
RUNWAY 11  RUNWAY 29
Traffic pattern: leftleft
Displaced threshold: 300 ft.300 ft.
Obstructions: none50 ft. trees, 500 ft. from runway

Airport Ownership and Management from official FAA records

Ownership: Privately-owned
Owner: POLLY RANCH HOME OWNERS ASSOC
PO BOX 161
FRIENDSWOOD, TX 77546
Phone 713-482-6430
Manager: POLLY RANCH HOME OWNERS ASSOC
PO BOX 161
FRIENDSWOOD, TX 77546
Phone 713-503-2055

Airport Operational Statistics

Aircraft based on the field: 36
Single engine airplanes: 30
Multi engine airplanes: 6
    

Additional Remarks

TO OBTAIN IFR CLEARANCE, CALL HOUSTON TRACON (I90) 1-281-443-5844.
FOR FLT PLAN FILING CALL MONTGOMERY CO. (CXO) FSS 1-800-WXBRIEF/1800-992-7433.

Instrument Procedures

There are no published instrument procedures at 7XS0.

Some nearby airports with instrument procedures:

KLVJ - Pearland Regional Airport (4 nm W)
KEFD - Ellington Airport (6 nm N)
KHOU - William P Hobby Airport (10 nm NW)
T41 - La Porte Municipal Airport (11 nm NE)
KAXH - Houston Southwest Airport (16 nm W)
 
Loc | Ops | Rwys | IFR | FBO | Links
Com | Nav | Svcs | Stats | Notes

AirNav Hotels Sweepstakes
 
Area around 7XS0 (Polly Ranch Airport)
 
Road maps at: MapQuest Bing Google
 
Aerial photo
WARNING: Photo may not be current or correct
Aerial photo of 7XS0 (Polly Ranch Airport)
Do you have a better or more recent aerial photo of Polly Ranch Airport that you would like to share? If so, please send us your photo.

 
Sectional chart

 
Airport distance calculator
Flying to Polly Ranch Airport? Find the distance to fly.

From to 7XS0

Sunrise and sunset
Times for 22-Apr-2018
 Local
(UTC-5)
 Zulu
(UTC)
Morning civil twilight06:2311:23
Sunrise06:4811:48
Sunset19:5100:51
Evening civil twilight20:1501:15

Current date and time
Zulu (UTC)  23-Apr-2018 02:52:14
Local (UTC-5)  22-Apr-2018 21:52:14
 
METAR
KLVJ 
4nm W 
230153Z AUTO 29003KT 10SM CLR 18/13 A3002 RMK AO2 SLP163 T01780128
KEFD 
6nm N 
230150Z 31006KT 10SM FEW250 19/11 A3001
KHOU 
10nm NW 
230153Z 32005KT 10SM CLR 20/11 A3000 RMK AO2 SLP164 T02000111
KAXH 
16nm W 
230235Z AUTO 33003KT 10SM CLR 17/11 A3003 RMK AO2 T01690112
TAF
KEFD 
6nm N 
221200Z 2212/2318 30012KT 9999 SCT008 BKN030 QNH2994INS BECMG 2214/2215 30012G20KT 9999 SCT020 QNH2998INS BECMG 2300/2301 29009KT 9999 SKC QNH3002INS TX23/2220Z TN16/2213Z
KHOU 
10nm NW 
222046Z 2221/2318 32013KT P6SM FEW035 SCT250 FM230200 34006KT P6SM SCT250 FM231500 30012KT P6SM FEW025
NOTAMs
Click for the latest NOTAMs
NOTAMs are issued by the DoD/FAA and will open in a separate window not controlled by AirNav.

 

 
 

Would you like to see your business listed on this page?

 If your business provides an interesting product or service to pilots, flight crews, aircraft, or users of the Polly Ranch Airport, you should consider listing it here.  To start the listing process, click on the button below
 
Add a business
 

Other Pages about Polly Ranch Airport

www.pollyranch.com
 
Update a link
 
Copyright © AirNav, LLC. All rights reserved. Privacy Policy  Contact